HAPPY2 EFJY-EFTP

Flight info

Callsign HAPPY2
Flight time 0h 26m
Altitude 16000
Route RUOKE PUPPA
Aircraft PC12/L-SDFGRY/H

Departure

Time 2026-05-07 13:24
Airport Jyväskylä Airport (EFJY)

Arrival

Time 2026-05-07 13:51
Airport Tampere-Pirkkala Airport (EFTP)
Time Latitude Longitude Altitude Speed Heading
2026-05-07 13:17 62.40171 25.65735 479 ft 0 kts 52°
2026-05-07 13:22 62.40173 25.65739 479 ft 2 kts 50°
2026-05-07 13:22 62.40226 25.65808 480 ft 18 kts 46°
2026-05-07 13:22 62.40340 25.66045 476 ft 27 kts 45°
2026-05-07 13:23 62.40452 25.66284 480 ft 20 kts 44°
2026-05-07 13:23 62.40523 25.66537 477 ft 16 kts 141°
2026-05-07 13:23 62.40500 25.66586 476 ft 9 kts 134°
2026-05-07 13:23 62.40313 25.67007 473 ft 75 kts 134°
2026-05-07 13:24 62.39848 25.68042 731 ft 103 kts 135°
2026-05-07 13:24 62.39335 25.69260 1274 ft 115 kts 134°
2026-05-07 13:24 62.38455 25.69890 1274 ft 171 kts 193°
2026-05-07 13:24 62.37548 25.68353 2136 ft 164 kts 229°
2026-05-07 13:25 62.36652 25.66604 2668 ft 186 kts 217°
2026-05-07 13:25 62.35448 25.65289 3079 ft 200 kts 200°
2026-05-07 13:25 62.34077 25.64622 3630 ft 203 kts 192°
2026-05-07 13:25 62.32678 25.64107 4220 ft 204 kts 193°
2026-05-07 13:26 62.31276 25.63543 4799 ft 206 kts 193°
2026-05-07 13:26 62.29864 25.62940 5351 ft 208 kts 194°
2026-05-07 13:26 62.28464 25.62335 5938 ft 208 kts 194°
2026-05-07 13:26 62.27036 25.61727 6499 ft 210 kts 194°
2026-05-07 13:27 62.25592 25.61120 7052 ft 212 kts 193°
2026-05-07 13:27 62.24137 25.60504 7576 ft 214 kts 194°
2026-05-07 13:27 62.22681 25.59866 8151 ft 213 kts 198°
2026-05-07 13:27 62.21534 25.58002 8708 ft 209 kts 237°
2026-05-07 13:28 62.20787 25.55362 9283 ft 211 kts 239°
2026-05-07 13:28 62.19984 25.52722 9883 ft 212 kts 236°
2026-05-07 13:28 62.19119 25.50143 10450 ft 214 kts 235°
2026-05-07 13:28 62.18249 25.47567 11048 ft 213 kts 235°
2026-05-07 13:29 62.17665 25.45821 11440 ft 213 kts 236°
2026-05-07 13:29 62.16805 25.43238 12034 ft 213 kts 236°
2026-05-07 13:29 62.15950 25.40683 12592 ft 215 kts 235°
2026-05-07 13:29 62.15075 25.38067 13134 ft 217 kts 235°
2026-05-07 13:30 62.14196 25.35444 13675 ft 217 kts 235°
2026-05-07 13:30 62.13312 25.32810 14185 ft 218 kts 235°
2026-05-07 13:30 62.12432 25.30190 14710 ft 216 kts 236°
2026-05-07 13:30 62.11558 25.27590 15198 ft 215 kts 236°
2026-05-07 13:31 62.10688 25.25006 15684 ft 214 kts 236°
2026-05-07 13:31 62.09816 25.22418 16038 ft 218 kts 236°
2026-05-07 13:31 62.08919 25.19755 16044 ft 220 kts 236°
2026-05-07 13:31 62.08036 25.17146 16039 ft 214 kts 236°
2026-05-07 13:32 62.07170 25.14584 16037 ft 212 kts 236°
2026-05-07 13:32 62.06309 25.12042 16039 ft 210 kts 236°
2026-05-07 13:32 62.05438 25.09470 16049 ft 218 kts 236°
2026-05-07 13:32 62.04533 25.06801 16048 ft 225 kts 236°
2026-05-07 13:33 62.03622 25.04120 16062 ft 227 kts 236°
2026-05-07 13:33 62.02696 25.01400 16056 ft 226 kts 236°
2026-05-07 13:33 62.01777 24.98701 16050 ft 224 kts 236°
2026-05-07 13:33 62.00861 24.96015 16049 ft 224 kts 236°
2026-05-07 13:34 61.99946 24.93334 16055 ft 224 kts 236°
2026-05-07 13:34 61.98112 24.87971 16053 ft 224 kts 236°
2026-05-07 13:34 61.97194 24.85291 16054 ft 224 kts 236°
2026-05-07 13:35 61.96275 24.82608 16061 ft 224 kts 236°
2026-05-07 13:35 61.95356 24.79931 16057 ft 224 kts 236°
2026-05-07 13:35 61.94436 24.77256 16057 ft 224 kts 236°
2026-05-07 13:35 61.93516 24.74584 16063 ft 224 kts 236°
2026-05-07 13:36 61.92608 24.71947 16061 ft 224 kts 236°
2026-05-07 13:36 61.91675 24.69242 16054 ft 224 kts 236°
2026-05-07 13:36 61.90765 24.66607 16063 ft 224 kts 236°
2026-05-07 13:36 61.89841 24.63936 16067 ft 224 kts 235°
2026-05-07 13:37 61.88918 24.61269 16056 ft 224 kts 236°
2026-05-07 13:37 61.87994 24.58601 16053 ft 224 kts 235°
2026-05-07 13:37 61.87065 24.55922 15932 ft 227 kts 235°
2026-05-07 13:37 61.86122 24.53207 15669 ft 228 kts 235°
2026-05-07 13:38 61.85185 24.50512 15366 ft 225 kts 236°
2026-05-07 13:38 61.84259 24.47856 15080 ft 224 kts 236°
2026-05-07 13:38 61.83333 24.45198 14788 ft 224 kts 235°
2026-05-07 13:38 61.82402 24.42531 14486 ft 225 kts 235°
2026-05-07 13:39 61.81472 24.39869 14200 ft 225 kts 235°
2026-05-07 13:39 61.80539 24.37199 13925 ft 226 kts 235°
2026-05-07 13:39 61.79615 24.34560 13609 ft 226 kts 235°
2026-05-07 13:39 61.78679 24.31890 13302 ft 226 kts 235°
2026-05-07 13:40 61.77744 24.29225 13002 ft 226 kts 235°
2026-05-07 13:40 61.76807 24.26560 12707 ft 226 kts 235°
2026-05-07 13:40 61.75868 24.23892 12407 ft 226 kts 234°
2026-05-07 13:40 61.74930 24.21231 12109 ft 226 kts 234°
2026-05-07 13:41 61.73991 24.18567 11811 ft 226 kts 234°
2026-05-07 13:41 61.73051 24.15904 11512 ft 226 kts 234°
2026-05-07 13:41 61.72138 24.13342 10928 ft 212 kts 231°
2026-05-07 13:41 61.71084 24.11573 10905 ft 190 kts 214°
2026-05-07 13:42 61.69877 24.10101 10730 ft 211 kts 212°
2026-05-07 13:42 61.68548 24.08586 10470 ft 221 kts 211°
2026-05-07 13:42 61.67176 24.07053 10199 ft 224 kts 210°
2026-05-07 13:42 61.65788 24.05503 9860 ft 224 kts 210°
2026-05-07 13:43 61.64424 24.03984 9628 ft 222 kts 210°
2026-05-07 13:43 61.63070 24.02474 9375 ft 223 kts 210°
2026-05-07 13:43 61.61696 24.00939 9102 ft 225 kts 210°
2026-05-07 13:43 61.60311 23.99394 8783 ft 220 kts 210°
2026-05-07 13:44 61.58997 23.97941 8520 ft 209 kts 210°
2026-05-07 13:44 61.57724 23.96553 8324 ft 205 kts 210°
2026-05-07 13:44 61.56513 23.94999 8174 ft 200 kts 220°
2026-05-07 13:44 61.55414 23.93203 7673 ft 192 kts 220°
2026-05-07 13:45 61.54430 23.91657 6999 ft 165 kts 221°
2026-05-07 13:45 61.53428 23.90097 6146 ft 183 kts 218°
2026-05-07 13:45 61.52411 23.88595 5073 ft 182 kts 219°
2026-05-07 13:45 61.51387 23.87062 4111 ft 178 kts 218°
2026-05-07 13:46 61.50403 23.85619 3323 ft 170 kts 218°
2026-05-07 13:46 61.49426 23.84190 3037 ft 158 kts 218°
2026-05-07 13:46 61.48459 23.82771 3051 ft 168 kts 219°
2026-05-07 13:46 61.47528 23.81396 3051 ft 170 kts 219°
2026-05-07 13:47 61.46585 23.80006 3020 ft 162 kts 219°
2026-05-07 13:47 61.45733 23.78660 2955 ft 146 kts 227°
2026-05-07 13:47 61.45174 23.77048 2681 ft 131 kts 246°
2026-05-07 13:47 61.44799 23.75369 2431 ft 124 kts 249°
2026-05-07 13:48 61.44439 23.73624 1599 ft 155 kts 249°
2026-05-07 13:48 61.44017 23.71734 1263 ft 128 kts 248°
2026-05-07 13:48 61.43658 23.70225 1106 ft 107 kts 246°
2026-05-07 13:48 61.43351 23.68878 1082 ft 101 kts 251°
2026-05-07 13:49 61.43050 23.67597 947 ft 92 kts 249°
2026-05-07 13:49 61.42783 23.66402 816 ft 97 kts 247°
2026-05-07 13:49 61.42500 23.65163 669 ft 90 kts 250°
2026-05-07 13:49 61.42207 23.63944 539 ft 95 kts 252°
2026-05-07 13:50 61.41935 23.62708 426 ft 96 kts 249°
2026-05-07 13:50 61.41673 23.61555 384 ft 77 kts 245°
2026-05-07 13:50 61.41466 23.60656 388 ft 63 kts 245°
2026-05-07 13:50 61.41282 23.59870 387 ft 59 kts 246°
2026-05-07 13:51 61.41165 23.59335 389 ft 41 kts 244°
2026-05-07 13:51 61.41038 23.59236 391 ft 26 kts 154°
2026-05-07 13:51 61.40973 23.59361 388 ft 24 kts 98°
2026-05-07 13:51 61.40922 23.59989 385 ft 54 kts 119°
2026-05-07 13:52 61.40727 23.60463 373 ft 30 kts 117°
2026-05-07 13:52 61.40725 23.61004 372 ft 45 kts 97°
2026-05-07 13:52 61.40765 23.61498 372 ft 26 kts 50°
2026-05-07 13:52 61.40764 23.61593 373 ft 0 kts 127°